Regional Weather Roundup
Issued by NWS

Home | Current Version | Previous Version | Graphics & Text | Print | Product List | Glossary On
Versions: 1 2 3 4 5 6 7 8 9 10 11 12 13 14 15 16 17 18 19 20 21 22 23 24 25 26 27 28 29 30 31 32 33 34 35 36 37 38 39 40 41 42 43 44 45 46 47 48 49 50
000
ASUS43 KOAX 020310
RWRNE

WEATHER ROUNDUP FOR NEBRASKA
NATIONAL WEATHER SERVICE OMAHA NE
1000 PM CDT FRI AUG 01 2014

NOTES: SATELLITE DATA IS BEING USED TO AUGMENT CLOUD COVER ABOVE
       12000 FEET.
       "FAIR" INDICATES FEW OR NO CLOUDS BELOW 12,000 FEET WITH NO
       SIGNIFICANT WEATHER AND/OR OBSTRUCTIONS TO VISIBILITY.

  * THESE STATIONS DO NOT REPORT WEATHER SUCH AS RAIN...SNOW OR FOG.

NEZ001>004-019>022-054>056-020400-
NEBRASKA PANHANDLE

CITY           SKY/WX    TMP DP  RH WIND       PRES   REMARKS
SCOTTSBLUFF    PTCLDY    74  53  48 VRB7      30.15R
ALLIANCE       CLOUDY    75  43  31 CALM      30.14R
CHADRON        MOCLDY    69  47  45 W5        30.09R
KIMBALL        CLEAR     67  54  61 SW5       30.22R
SIDNEY         CLEAR     66  47  50 S7        30.20R
$$

NEZ057>060-069>072-079>082-020400-
SOUTHWEST NEBRASKA

CITY           SKY/WX    TMP DP  RH WIND       PRES   REMARKS
NORTH PLATTE   CLEAR     66  61  84 E7        30.11R
IMPERIAL       PTCLDY    70  56  61 SE6       30.14R
LEXINGTON      CLEAR     74  62  67 SE8       30.12R
MCCOOK         MOCLDY    74  58  57 E9        30.12R
OGALLALA       CLEAR     69  51  54 SE3       30.14R
$$

NEZ005>010-023>029-035>040-094-020400-
NORTH CENTRAL NEBRASKA

CITY           SKY/WX    TMP DP  RH WIND       PRES   REMARKS
VALENTINE      LGT RAIN  73  63  70 SE8       30.10R
AINSWORTH      MOCLDY    76  56  51 SE9       30.11R
BROKEN BOW     CLEAR     71  60  68 SE8       30.12R
O`NEILL        PTCLDY    71  59  66 SE6       30.10R
ORD            CLEAR     71  57  61 SE5       30.10R
THEDFORD       CLEAR     76  55  47 S9        30.11R
$$

NEZ041-046>049-061>064-073>077-083>087-020400-
SOUTH CENTRAL NEBRASKA

CITY           SKY/WX    TMP DP  RH WIND       PRES   REMARKS
GRAND ISLAND   CLEAR     68  61  78 SE3       30.12R
AURORA         CLEAR     67  65  93 CALM      30.11R
HASTINGS       CLEAR     67  58  72 W3        30.12R
HEBRON         CLEAR     69  62  79 CALM      30.09R
HOLDREGE       CLEAR     68  60  76 E6        30.13R
KEARNEY *      CLEAR     68  57  68 E6        30.13R
YORK           PTCLDY    68  64  88 NE3       30.11R
$$

NEZ011>018-030>034-042>045-020400-
NORTHEAST NEBRASKA

CITY           SKY/WX    TMP DP  RH WIND       PRES   REMARKS
NORFOLK        CLEAR     69  61  75 S6        30.10R
ALBION         CLEAR     67  60  76 CALM      30.11R
BLAIR          CLEAR     70  61  72 E6        30.10R
COLUMBUS *     CLEAR     68  61  77 CALM      30.10R
FREMONT        CLEAR     74  62  65 E3        30.10R
TEKAMAH        CLEAR     69  63  81 E5        30.08R
WAYNE          CLEAR     65  62  89 CALM      30.11R
$$

NEZ050>053-065>068-078-088>093-020400-
SOUTHEAST NEBRASKA

CITY           SKY/WX    TMP DP  RH WIND       PRES   REMARKS
LINCOLN        CLEAR     75  59  57 E7        30.09R
OMAHA EPPLEY   CLEAR     71  63  75 CALM      30.09R
BEATRICE       CLEAR     71  64  77 E6        30.09R
FALLS CITY     CLEAR     70  64  81 E3        30.07R
NEBRASKA CITY  CLEAR     72  62  71 CALM      30.09R
PLATTSMOUTH    CLEAR     72  61  68 CALM      30.09R
$$

NEZ044-045-051>053-067-020400-
OMAHA AREA

CITY           SKY/WX    TMP DP  RH WIND       PRES   REMARKS
OMAHA EPPLEY   CLEAR     71  63  75 CALM      30.09R
BLAIR          CLEAR     70  61  72 E6        30.10R
FREMONT        CLEAR     74  62  65 E3        30.10R
MILLARD        CLEAR     72  63  73 CALM      30.08R
OFFUTT AFB     CLEAR     66  66  99 NE5       30.08R
PLATTSMOUTH    CLEAR     72  61  68 CALM      30.09R
WAHOO          FAIR      71  65  83 CALM      30.09R
$$



USA.gov is the U.S. government's official web portal to all federal, state and local government web resources and services.